TimeCST,TemperatureF,Dew PointF,Humidity,Sea Level PressureIn,VisibilityMPH,Wind Direction,Wind SpeedMPH,Gust SpeedMPH,PrecipitationIn,Events,Conditions,WindDirDegrees,DateUTC
12:54 AM,39.0,35.1,86,29.71,10.0,Calm,Calm,-,N/A,,Clear,0,2012-12-16 06:54:00
1:54 AM,37.0,33.1,86,29.69,10.0,Calm,Calm,-,N/A,,Clear,0,2012-12-16 07:54:00
2:54 AM,37.9,35.1,89,29.70,10.0,Calm,Calm,-,N/A,,Clear,0,2012-12-16 08:54:00
3:54 AM,33.1,30.9,92,29.71,10.0,Calm,Calm,-,N/A,,Clear,0,2012-12-16 09:54:00
4:54 AM,30.9,28.9,92,29.71,10.0,North,4.6,-,N/A,,Clear,360,2012-12-16 10:54:00
5:54 AM,34.0,33.1,96,29.71,10.0,SSE,4.6,-,N/A,,Clear,150,2012-12-16 11:54:00
6:54 AM,30.9,28.9,92,29.73,10.0,Calm,Calm,-,N/A,,Clear,0,2012-12-16 12:54:00
7:54 AM,30.9,30.9,100,29.73,7.0,Calm,Calm,-,N/A,,Clear,0,2012-12-16 13:54:00
8:54 AM,39.0,37.9,96,29.73,6.0,Calm,Calm,-,N/A,,Clear,0,2012-12-16 14:54:00
9:01 AM,39.2,37.4,93,29.72,6.0,Calm,Calm,-,N/A,,Partly Cloudy,0,2012-12-16 15:01:00
9:15 AM,37.4,37.4,100,29.72,6.0,Calm,Calm,-,N/A,,Mostly Cloudy,0,2012-12-16 15:15:00
9:27 AM,39.2,37.4,93,29.72,6.0,SE,3.5,-,N/A,,Overcast,130,2012-12-16 15:27:00
9:54 AM,39.9,39.0,97,29.73,6.0,ESE,6.9,-,N/A,,Overcast,110,2012-12-16 15:54:00
10:02 AM,39.2,39.2,100,29.73,3.0,ENE,4.6,-,N/A,,Overcast,70,2012-12-16 16:02:00
10:54 AM,41.0,39.9,96,29.74,6.0,Calm,Calm,-,N/A,,Overcast,0,2012-12-16 16:54:00
11:37 AM,42.8,39.2,87,29.70,7.0,ENE,5.8,-,N/A,,Overcast,60,2012-12-16 17:37:00
11:54 AM,43.0,39.9,89,29.70,8.0,NNE,6.9,-,N/A,,Overcast,30,2012-12-16 17:54:00
1:36 PM,44.6,39.2,81,29.69,6.0,NNW,5.8,-,N/A,,Overcast,340,2012-12-16 19:36:00
1:54 PM,44.1,39.0,82,29.69,6.0,NNW,12.7,-,N/A,,Haze,340,2012-12-16 19:54:00
2:54 PM,46.0,39.0,76,29.69,7.0,North,8.1,-,N/A,,Overcast,10,2012-12-16 20:54:00
3:06 PM,46.4,39.2,76,29.68,7.0,North,9.2,-,N/A,,Overcast,360,2012-12-16 21:06:00
3:54 PM,46.0,37.9,73,29.73,8.0,NNW,10.4,-,N/A,,Overcast,330,2012-12-16 21:54:00
4:54 PM,45.0,37.9,76,29.74,8.0,North,6.9,-,N/A,,Overcast,350,2012-12-16 22:54:00
5:54 PM,44.1,37.9,79,29.75,10.0,NW,3.5,-,N/A,,Overcast,320,2012-12-16 23:54:00
6:54 PM,43.0,35.1,74,29.77,10.0,North,10.4,-,N/A,,Overcast,10,2012-12-17 00:54:00
7:51 PM,39.2,33.8,81,29.76,10.0,NNE,8.1,-,N/A,,Scattered Clouds,20,2012-12-17 01:51:00
7:54 PM,39.9,34.0,79,29.79,10.0,NNE,6.9,-,N/A,,Partly Cloudy,20,2012-12-17 01:54:00
8:54 PM,36.0,33.1,89,29.81,7.0,North,5.8,-,N/A,,Clear,350,2012-12-17 02:54:00
9:54 PM,36.0,32.0,86,29.83,7.0,NNW,4.6,-,N/A,,Clear,340,2012-12-17 03:54:00
10:54 PM,35.1,32.0,89,29.82,7.0,North,11.5,-,N/A,,Overcast,360,2012-12-17 04:54:00